#timestamp,LO_Frequency,Hit,StdDev 
1593579615.3,286047000.4,N
1593579635.2,286047000.5,N
1593579655.9,286046998.3,N
1593579675.7,286046999.4,N
1593579695.6,286046999.3,N
1593579715.4,286046999.1,N
1593579735.3,286047000.7,N
1593579755.1,286047000.9,N
1593579756.0,286047000.9,N
1593579775.8,286046998.7,N
1593579795.7,286046999.4,N
1593579815.5,286046998.7,N
1593579835.4,286046999.0,N
1593579855.2,286046999.0,N
1593579875.0,286046999.0,N
1593579875.9,286046999.0,N
1593579895.8,286046996.5,Y
1593579915.6,286046998.4,P
1593579935.5,286046999.4,N
1593579955.3,286046999.5,N
1593579975.1,286046999.5,N
1593579995.9,286046998.8,N
1593580015.7,286046997.7,Y
1593580035.5,286046999.6,P
1593580055.4,286046999.3,P
1593580075.2,286046996.9,P
1593580095.1,286047001.2,N
1593580096.0,286047001.2,N
1593580115.8,286047000.7,N
1593580135.6,286047001.1,N
1593580155.5,286046998.1,N
1593580175.3,286046999.7,N
1593580195.2,286047001.1,N
1593580215.9,286046998.3,N
1593580235.7,286046998.7,N
1593580255.6,286046999.4,N
1593580275.4,286047000.5,N
1593580295.2,286046999.1,N
1593580315.1,286046998.1,N
1593580316.0,286046998.1,N
1593580335.8,286047000.3,N
1593580355.7,286047000.5,N
1593580375.5,286047002.3,N
1593580395.3,286046998.2,N
1593580415.2,286046998.8,N
1593580435.0,286047000.7,N
1593580435.9,286047000.7,N
1593580455.8,286046998.3,N
1593580475.6,286046998.4,N
1593580495.4,286047001.1,N
1593580515.3,286046998.3,N
1593580535.1,286046998.3,N
1593580555.8,286046998.3,N
1593580575.7,286046998.7,N
1593580595.5,286046997.5,N
1593580615.4,286046999.4,N
1593580635.2,286046998.2,N
1593580655.0,286046998.2,N
1593580655.9,286046998.2,N
1593580675.8,286046998.8,N
1593580695.6,286047000.7,N
1593580715.4,286046998.3,N
1593580735.3,286046998.9,N
1593580755.1,286046997.1,N
1593580775.9,286046999.3,N
1593580795.7,286046996.6,N
1593580815.5,286046999.6,N
1593580835.4,286046999.4,N
1593580855.2,286046995.3,Y
1593580875.1,286046998.8,P
1593580876.0,286046998.8,P
1593580895.8,286046998.5,P
1593580915.6,286046998.7,Y
1593580935.5,286047000.7,P
1593580955.3,286047000.5,N
1593580975.2,286046998.1,N
1593580995.9,286046999.2,N
1593581015.7,286046999.4,N
1593581035.6,286047000.6,N
1593581055.4,286047000.3,N
1593581075.2,286047000.0,N
1593581095.1,286047000.6,N
1593581096.0,286047000.6,N
1593581115.8,286047000.4,N
1593581135.7,286047001.1,N
1593581155.5,286046998.6,N
1593581175.3,286047000.4,N
1593581195.2,286047001.0,N
1593581215.0,286046998.1,N
1593581215.9,286046998.1,N
1593581235.8,286047001.0,N
1593581255.6,286047001.0,N
1593581275.4,286047001.0,N
1593581295.3,286047000.0,N
1593581315.1,286046999.7,N
1593581335.8,286047000.6,N
1593581355.7,286047000.8,N
1593581375.5,286047002.7,N
1593581395.4,286046998.6,N
1593581415.2,286046998.5,N
1593581435.0,286047000.0,N
1593581435.9,286047000.0,N
1593581455.8,286047001.0,N
1593581475.6,286046998.5,N
1593581495.5,286046998.2,N
1593581515.3,286047000.9,N
1593581535.1,286047001.2,N
1593581555.9,286047000.2,N
1593581575.7,286047002.6,N
1593581595.5,286047000.7,N
1593581615.4,286047001.2,N
1593581635.2,286047000.3,N
1593581655.1,286046999.7,N
1593581656.0,286046999.7,N
1593581675.8,286046999.8,N
1593581695.6,286047000.6,N
1593581715.5,286046998.7,N
1593581735.3,286047000.7,N
1593581755.2,286046999.0,N
1593581775.9,286046999.0,N
1593581795.7,286046998.4,N
1593581815.6,286046998.2,N
1593581835.4,286046996.5,N
1593581855.2,286047000.5,N
1593581875.1,286047001.2,N
1593581876.0,286047001.2,N
1593581895.8,286046998.3,N
1593581915.7,286046998.8,N
1593581935.5,286047002.8,N
1593581955.3,286047000.3,N
1593581975.2,286047001.5,N
1593581995.0,286047001.4,N
1593581995.9,286047001.4,N
1593582015.8,286046999.8,N
1593582035.6,286047004.4,Y
1593582055.4,286047002.6,P
1593582075.3,286047000.2,N
1593582095.1,286047000.3,N
1593582115.9,286047000.4,N
1593582135.7,286046999.7,N
1593582155.5,286047002.2,N
1593582175.4,286047000.1,N
1593582195.2,286047002.4,N
1593582215.0,286047001.9,N
1593582215.9,286047001.9,N
1593582235.8,286047001.9,N
1593582255.6,286047002.6,N
1593582275.5,286047002.0,N
1593582295.3,286047002.5,N
1593582315.1,286047002.2,N
1593582335.9,286047004.4,Y
1593582355.7,286047002.8,P
1593582375.6,286047002.3,P
1593582395.4,286046999.8,N
1593582415.2,286047001.0,N
1593582435.1,286046999.7,N
1593582436.0,286046999.7,N
1593582455.8,286047004.9,Y
1593582475.6,286047004.3,P
1593582495.5,286047005.9,P
1593582515.3,286047003.2,N
1593582535.2,286047003.4,N
1593582555.9,286047003.2,N
1593582575.7,286047001.8,N
1593582595.6,286047005.9,Y
1593582615.4,286047001.9,P
1593582635.3,286047002.1,P
1593582655.1,286047000.2,N
1593582656.0,286047000.2,N
1593582675.8,286047000.3,N
1593582695.7,286047001.6,N
1593582715.5,286047002.7,N
1593582735.3,286047002.3,N
1593582755.2,286047002.6,N
1593582775.0,286047001.0,N
1593582775.9,286047001.0,N
1593582795.8,286046999.0,N
1593582815.6,286046999.5,N
1593582835.4,286046997.5,N
1593582855.3,286046998.3,N
1593582875.1,286046999.6,N
1593582895.9,286046996.8,N
1593582915.7,286046999.4,N
1593582935.5,286046995.0,N
1593582955.4,286046999.0,N
1593582975.2,286046998.5,N
1593582995.0,286046996.7,N
1593582996.0,286046996.7,N
1593583015.8,286046995.5,N
1593583035.6,286046997.2,N
1593583055.5,286046997.1,N
1593583075.3,286046995.0,N
1593583095.1,286046996.9,N
1593583115.9,286046997.2,N
1593583135.7,286046994.9,N
1593583155.6,286046995.1,N
1593583175.4,286046997.9,N
1593583195.2,286046995.5,N
